NKS1370 KFLL-KMCO

Flight info

Callsign NKS1370
Flight time N/A
Altitude 22000
Route FRSBE2 WAPOM RIDES2
Aircraft A320/M-VGDW/C

Departure

Time 2026-05-03 22:33
Airport Fort Lauderdale Hollywood International Airport (KFLL)

Arrival

Time N/A
Airport Orlando International Airport (KMCO)
Time Latitude Longitude Altitude Speed Heading
2026-05-03 21:38 26.06930 -80.14152 41 ft 0 kts 299°
2026-05-03 21:57 26.06929 -80.14150 41 ft 2 kts 299°
2026-05-03 21:57 26.06916 -80.14125 43 ft 4 kts 299°
2026-05-03 21:57 26.06905 -80.14099 41 ft 4 kts 278°
2026-05-03 21:57 26.06905 -80.14083 43 ft 2 kts 181°
2026-05-03 21:58 26.06906 -80.14083 43 ft 2 kts 181°
2026-05-03 22:03 26.06905 -80.14083 43 ft 2 kts 181°
2026-05-03 22:03 26.06881 -80.14083 39 ft 2 kts 180°
2026-05-03 22:03 26.06859 -80.14083 47 ft 7 kts 181°
2026-05-03 22:04 26.06802 -80.14084 50 ft 7 kts 184°
2026-05-03 22:04 26.06763 -80.14109 49 ft 8 kts 231°
2026-05-03 22:04 26.06751 -80.14182 50 ft 12 kts 269°
2026-05-03 22:04 26.06751 -80.14295 48 ft 17 kts 270°
2026-05-03 22:05 26.06751 -80.14452 43 ft 23 kts 271°
2026-05-03 22:05 26.06763 -80.14629 39 ft 24 kts 274°
2026-05-03 22:05 26.06767 -80.14751 39 ft 7 kts 271°
2026-05-03 22:05 26.06768 -80.14808 40 ft 7 kts 271°
2026-05-03 22:06 26.06763 -80.14879 39 ft 12 kts 250°
2026-05-03 22:06 26.06700 -80.14957 39 ft 15 kts 251°
2026-05-03 22:06 26.06695 -80.15089 37 ft 19 kts 269°
2026-05-03 22:06 26.06696 -80.15221 36 ft 11 kts 270°
2026-05-03 22:07 26.06696 -80.15289 36 ft 7 kts 270°
2026-05-03 22:07 26.06697 -80.15354 35 ft 7 kts 270°
2026-05-03 22:07 26.06697 -80.15358 35 ft 0 kts 270°
2026-05-03 22:11 26.06697 -80.15369 34 ft 5 kts 270°
2026-05-03 22:11 26.06697 -80.15423 33 ft 9 kts 270°
2026-05-03 22:11 26.06697 -80.15465 31 ft 1 kts 270°
2026-05-03 22:11 26.06697 -80.15466 31 ft 0 kts 270°
2026-05-03 22:19 26.06697 -80.15474 31 ft 3 kts 270°
2026-05-03 22:19 26.06697 -80.15512 30 ft 7 kts 269°
2026-05-03 22:19 26.06697 -80.15547 28 ft 0 kts 271°
2026-05-03 22:20 26.06697 -80.15561 28 ft 4 kts 270°
2026-05-03 22:20 26.06697 -80.15581 27 ft 0 kts 270°
2026-05-03 22:23 26.06697 -80.15598 27 ft 5 kts 270°
2026-05-03 22:23 26.06698 -80.15621 29 ft 0 kts 270°
2026-05-03 22:23 26.06698 -80.15623 28 ft 2 kts 270°
2026-05-03 22:24 26.06698 -80.15659 25 ft 7 kts 270°
2026-05-03 22:24 26.06698 -80.15700 24 ft 0 kts 270°
2026-05-03 22:27 26.06698 -80.15710 23 ft 4 kts 270°
2026-05-03 22:27 26.06698 -80.15752 22 ft 3 kts 270°
2026-05-03 22:28 26.06698 -80.15766 22 ft 0 kts 270°
2026-05-03 22:29 26.06698 -80.15772 22 ft 3 kts 270°
2026-05-03 22:29 26.06694 -80.15797 21 ft 5 kts 248°
2026-05-03 22:30 26.06687 -80.15806 20 ft 0 kts 229°
2026-05-03 22:32 26.06671 -80.15818 20 ft 6 kts 205°
2026-05-03 22:32 26.06609 -80.15807 19 ft 16 kts 139°
2026-05-03 22:32 26.06589 -80.15610 28 ft 51 kts 89°
2026-05-03 22:32 26.06584 -80.14946 39 ft 118 kts 90°
2026-05-03 22:33 26.06574 -80.13842 75 ft 164 kts 88°
2026-05-03 22:33 26.06556 -80.12563 724 ft 164 kts 91°
2026-05-03 22:33 26.06518 -80.11289 1380 ft 166 kts 92°
2026-05-03 22:33 26.06774 -80.10046 1977 ft 168 kts 54°
2026-05-03 22:34 26.07524 -80.09035 2610 ft 172 kts 49°
2026-05-03 22:34 26.08296 -80.07982 3160 ft 182 kts 43°
2026-05-03 22:34 26.09326 -80.07092 3666 ft 195 kts 26°
2026-05-03 22:34 26.10645 -80.06463 3973 ft 224 kts 15°
2026-05-03 22:35 26.12268 -80.05842 4002 ft 266 kts 17°
2026-05-03 22:35 26.14042 -80.05151 4000 ft 276 kts 14°
2026-05-03 22:35 26.15919 -80.04915 4011 ft 270 kts 351°
2026-05-03 22:35 26.17719 -80.05453 4010 ft 268 kts 338°
2026-05-03 22:36 26.19477 -80.06129 4006 ft 267 kts 338°
2026-05-03 22:36 26.21207 -80.06870 4005 ft 265 kts 328°
2026-05-03 22:36 26.22572 -80.08198 4011 ft 260 kts 302°
2026-05-03 22:36 26.23327 -80.09990 4439 ft 259 kts 289°
2026-05-03 22:37 26.23986 -80.11864 4933 ft 260 kts 290°
2026-05-03 22:37 26.24659 -80.13743 5420 ft 261 kts 290°
2026-05-03 22:37 26.25348 -80.15632 5907 ft 265 kts 293°
2026-05-03 22:37 26.26306 -80.17409 6411 ft 269 kts 301°
2026-05-03 22:38 26.27317 -80.19163 6907 ft 269 kts 301°
2026-05-03 22:38 26.28324 -80.20923 7455 ft 270 kts 300°
2026-05-03 22:38 26.29338 -80.22701 8003 ft 272 kts 300°
2026-05-03 22:38 26.30352 -80.24485 8567 ft 274 kts 299°
2026-05-03 22:39 26.31375 -80.26288 9151 ft 276 kts 298°
2026-05-03 22:39 26.32406 -80.28107 9729 ft 278 kts 298°
2026-05-03 22:39 26.33444 -80.29939 10297 ft 281 kts 298°
2026-05-03 22:39 26.34498 -80.31804 10851 ft 291 kts 298°
2026-05-03 22:40 26.35605 -80.33775 11388 ft 308 kts 298°
2026-05-03 22:40 26.36772 -80.35847 11961 ft 323 kts 298°
2026-05-03 22:40 26.37996 -80.38014 12533 ft 337 kts 298°
2026-05-03 22:40 26.39269 -80.40261 13102 ft 347 kts 298°
2026-05-03 22:41 26.40568 -80.42552 13705 ft 352 kts 298°
2026-05-03 22:41 26.41882 -80.44867 14245 ft 354 kts 298°
2026-05-03 22:41 26.43203 -80.47197 14777 ft 356 kts 297°
2026-05-03 22:41 26.44534 -80.49551 15324 ft 358 kts 297°
2026-05-03 22:42 26.45867 -80.51910 15875 ft 361 kts 297°
2026-05-03 22:42 26.47210 -80.54286 16434 ft 364 kts 298°
2026-05-03 22:42 26.48917 -80.56448 17007 ft 385 kts 317°
2026-05-03 22:42 26.51294 -80.57949 17600 ft 401 kts 330°
2026-05-03 22:43 26.53975 -80.59000 18144 ft 416 kts 338°
2026-05-03 22:43 26.56828 -80.59769 18624 ft 427 kts 342°
2026-05-03 22:43 26.59770 -80.60431 19085 ft 435 kts 342°
2026-05-03 22:43 26.62759 -80.61121 19540 ft 441 kts 341°
2026-05-03 22:44 26.65767 -80.61904 20013 ft 447 kts 340°
2026-05-03 22:44 26.68791 -80.62792 20490 ft 451 kts 338°
2026-05-03 22:44 26.71828 -80.63762 20978 ft 455 kts 337°
2026-05-03 22:44 26.74828 -80.64762 21468 ft 458 kts 337°
2026-05-03 22:45 26.77906 -80.65799 21899 ft 463 kts 337°
2026-05-03 22:45 26.80998 -80.66828 22030 ft 465 kts 337°
2026-05-03 22:45 26.84110 -80.67838 22059 ft 466 kts 338°
2026-05-03 22:45 26.87235 -80.68806 22053 ft 466 kts 338°
2026-05-03 22:46 26.90363 -80.69794 22061 ft 465 kts 337°
2026-05-03 22:46 26.93458 -80.70846 22059 ft 464 kts 336°
2026-05-03 22:46 26.96523 -80.71966 22058 ft 463 kts 335°
2026-05-03 22:46 26.99563 -80.73126 22052 ft 454 kts 334°
2026-05-03 22:47 27.02471 -80.74247 22055 ft 431 kts 334°
2026-05-03 22:47 27.05237 -80.75309 22058 ft 411 kts 333°
2026-05-03 22:47 27.07901 -80.76331 22057 ft 399 kts 333°
2026-05-03 22:47 27.10521 -80.77341 22057 ft 397 kts 333°